TimeEST,TemperatureF,Dew PointF,Humidity,Sea Level PressureIn,VisibilityMPH,Wind Direction,Wind SpeedMPH,Gust SpeedMPH,PrecipitationIn,Events,Conditions,WindDirDegrees,DateUTC
12:56 AM,30.0,17.1,59,30.31,10.0,WSW,4.6,-,N/A,,Clear,250,2013-02-18 05:56:00
1:56 AM,28.0,18.0,66,30.33,10.0,Calm,Calm,-,N/A,,Clear,0,2013-02-18 06:56:00
2:56 AM,28.0,18.0,66,30.33,10.0,Calm,Calm,-,N/A,,Clear,0,2013-02-18 07:56:00
3:56 AM,25.0,18.0,75,30.34,10.0,West,3.5,-,N/A,,Clear,260,2013-02-18 08:56:00
4:56 AM,28.0,19.0,69,30.35,10.0,Calm,Calm,-,N/A,,Clear,0,2013-02-18 09:56:00
5:56 AM,24.1,19.0,81,30.37,10.0,West,4.6,-,N/A,,Clear,260,2013-02-18 10:56:00
6:56 AM,25.0,19.0,78,30.38,10.0,Calm,Calm,-,N/A,,Clear,0,2013-02-18 11:56:00
7:56 AM,27.0,21.0,78,30.40,10.0,Calm,Calm,-,N/A,,Clear,0,2013-02-18 12:56:00
8:56 AM,34.0,21.0,59,30.42,10.0,Calm,Calm,-,N/A,,Clear,0,2013-02-18 13:56:00
9:56 AM,42.1,21.0,43,30.41,10.0,Calm,Calm,-,N/A,,Partly Cloudy,0,2013-02-18 14:56:00
10:56 AM,48.9,18.0,29,30.41,10.0,Calm,Calm,-,N/A,,Partly Cloudy,0,2013-02-18 15:56:00
11:56 AM,53.1,19.0,26,30.39,10.0,Calm,Calm,-,N/A,,Mostly Cloudy,0,2013-02-18 16:56:00
12:56 PM,55.0,19.9,25,30.36,10.0,ESE,4.6,-,N/A,,Mostly Cloudy,120,2013-02-18 17:56:00
1:56 PM,57.9,19.9,23,30.33,10.0,WSW,9.2,-,N/A,,Mostly Cloudy,240,2013-02-18 18:56:00
2:56 PM,57.9,21.0,24,30.31,10.0,SSW,5.8,-,N/A,,Mostly Cloudy,210,2013-02-18 19:56:00
3:56 PM,57.9,21.9,25,30.30,10.0,SSE,10.4,19.6,N/A,,Mostly Cloudy,160,2013-02-18 20:56:00
4:56 PM,57.0,21.9,26,30.29,10.0,South,9.2,-,N/A,,Mostly Cloudy,170,2013-02-18 21:56:00
5:56 PM,55.0,23.0,29,30.30,10.0,South,8.1,-,N/A,,Scattered Clouds,170,2013-02-18 22:56:00
6:56 PM,50.0,25.0,38,30.30,10.0,SSE,6.9,-,N/A,,Scattered Clouds,160,2013-02-18 23:56:00
7:56 PM,48.0,23.0,37,30.30,10.0,South,9.2,-,N/A,,Scattered Clouds,170,2013-02-19 00:56:00
8:56 PM,46.9,24.1,41,30.27,10.0,SSE,9.2,-,N/A,,Scattered Clouds,160,2013-02-19 01:56:00
9:56 PM,44.1,24.1,45,30.28,10.0,South,4.6,-,N/A,,Scattered Clouds,180,2013-02-19 02:56:00
10:56 PM,43.0,24.1,47,30.28,10.0,Calm,Calm,-,N/A,,Scattered Clouds,0,2013-02-19 03:56:00
11:56 PM,42.1,25.0,51,30.25,10.0,Calm,Calm,-,N/A,,Scattered Clouds,0,2013-02-19 04:56:00